Hopkins, SC

3:00 PM EST on February 06, 2016 (GMT -0500)
McEntire Angs

Weather History for KMMT - February, 2013

Change the Weather History Date:

Monday, February 11, 2013

  Actual Average Record
Temperature  
Mean Temperature 60 °F -  
Max Temperature 69 °F 57 °F 77 °F (1999)
Min Temperature 51 °F 37 °F 24 °F (2011)
Degree Days  
Heating Degree Days 5    
Growing Degree Days 10 (Base 50)    
Moisture  
Dew Point 58 °F    
Average Humidity 94    
Maximum Humidity 100    
Minimum Humidity 73    
Precipitation  
Precipitation 0.66 in - - ()
Sea Level Pressure  
Sea Level Pressure 30.10 in    
Wind  
Wind Speed 9 mph (SSW)    
Max Wind Speed 14 mph    
Max Gust Speed 21 mph    
Visibility 8 miles    
Events Rain    
Averages and records for this station are not official NWS values.
T = Trace of Precipitation, MM = Missing Value Source: NWS Daily Summary

Daily Weather History Graph

Daily Weather History Graph

Search for Another Location

Airport or City:

Trip Planner

Search our weather history database for the weather conditions in past years. The results will help you decide how hot, cold, wet, or windy it might be!

Date:

Astronomy

Feb. 11, 2013 Rise Set
Actual Time 7:11 AM EST 6:03 PM EST
Civil Twilight 6:45 AM EST 6:29 PM EST
Nautical Twilight 6:16 AM EST 6:59 PM EST
Astronomical Twilight 5:47 AM EST 7:28 PM EST
Moon 7:41 AM EST (2/11) 7:50 PM EST (2/11)
Length of Visible Light 11h 43m
Length of Day
10h 52m
Waxing Crescent, 3% of the Moon is Illuminated
Feb 11
Waxing Crescent
Feb 17
First Quarter
Feb 25
Full
Mar 4
Last Quarter
Mar 11
New

Hourly Weather History & Observations

Time (EST) Temp. Dew Point Humidity Pressure Visibility Wind Dir Wind Speed Gust Speed Precip Events Conditions
12:55 AM 51.1 °F 50.9 °F 99% 30.23 in 6.0 mi ESE 5.8 mph - 0.09 in Rain Light Rain
12:57 AM 51.8 °F 50.0 °F 94% 30.23 in 6.0 mi ESE 6.9 mph - N/A Rain Light Rain
1:10 AM 51.8 °F 50.0 °F 94% 30.22 in 4.0 mi ESE 8.1 mph - N/A Rain Light Rain
1:55 AM 51.6 °F 51.4 °F 99% 30.19 in 5.0 mi ESE 8.1 mph - 0.12 in Rain Light Rain
2:55 AM 52.7 °F 52.7 °F 100% 30.16 in 7.0 mi ESE 9.2 mph - 0.09 in Rain Light Rain
3:44 AM 53.6 °F 53.6 °F 100% 30.12 in 10.0 mi ESE 8.1 mph - N/A   Overcast
3:55 AM 53.8 °F 53.8 °F 100% 30.12 in 10.0 mi SE 8.1 mph - 0.01 in   Overcast
4:01 AM 53.6 °F 53.6 °F 100% 30.11 in 10.0 mi SE 8.1 mph - N/A   Overcast
4:23 AM 55.4 °F 55.4 °F 100% 30.12 in 10.0 mi SSE 6.9 mph - N/A Rain Light Rain
4:37 AM 55.4 °F 55.4 °F 100% 30.12 in 10.0 mi South 9.2 mph - N/A Rain Light Rain
4:55 AM 56.1 °F 56.1 °F 100% 30.12 in 10.0 mi SSE 8.1 mph - 0.00 in Rain Light Rain
5:16 AM 57.2 °F 57.2 °F 100% 30.12 in 10.0 mi SSE 10.4 mph - N/A Rain Light Rain
5:55 AM 57.2 °F 57.2 °F 100% 30.12 in 10.0 mi South 8.1 mph - 0.03 in Rain Light Rain
5:59 AM 57.2 °F 57.2 °F 100% 30.12 in 10.0 mi South 8.1 mph - N/A Rain Light Rain
6:32 AM 57.2 °F 57.2 °F 100% 30.12 in 10.0 mi South 8.1 mph - N/A Rain Light Rain
6:55 AM 58.6 °F 58.5 °F 99% 30.12 in 3.0 mi South 10.4 mph - 0.03 in Rain Light Rain
7:55 AM 59.5 °F 59.2 °F 99% 30.12 in 5.0 mi South 11.5 mph 20.7 mph 0.02 in Rain Light Rain
8:13 AM 59.0 °F 59.0 °F 100% 30.12 in 5.0 mi South 10.4 mph - N/A Rain Light Rain
8:37 AM 60.8 °F 59.0 °F 94% 30.11 in 3.0 mi South 10.4 mph - N/A Rain Light Rain
8:55 AM 60.3 °F 59.9 °F 99% 30.12 in 3.0 mi South 10.4 mph - 0.04 in Rain Rain
9:55 AM 61.2 °F 60.8 °F 99% 30.12 in 4.0 mi South 8.1 mph - 0.03 in Rain Light Rain
10:42 AM 60.8 °F 60.8 °F 100% 30.11 in 5.0 mi South 11.5 mph 18.4 mph N/A Rain Light Rain
10:55 AM 61.5 °F 61.2 °F 99% 30.08 in 6.0 mi SSE 12.7 mph - 0.02 in Rain Light Rain
11:08 AM 60.8 °F 60.8 °F 100% 30.09 in 7.0 mi South 9.2 mph - N/A   Overcast
11:46 AM 62.6 °F 62.6 °F 100% 30.09 in 10.0 mi SSW 9.2 mph - N/A   Overcast
11:55 AM 62.6 °F 61.5 °F 96% 30.10 in 10.0 mi SW 10.4 mph - 0.00 in   Overcast
12:00 PM 62.6 °F 60.8 °F 94% 30.10 in 10.0 mi SW 9.2 mph - N/A   Overcast
12:20 PM 62.6 °F 60.8 °F 94% 30.09 in 10.0 mi SW 9.2 mph - N/A   Overcast
12:55 PM 64.9 °F 62.1 °F 90% 30.08 in 10.0 mi SW 10.4 mph - N/A   Overcast
1:11 PM 66.2 °F 62.6 °F 88% 30.08 in 10.0 mi SW 12.7 mph - N/A   Overcast
1:55 PM 67.5 °F 61.3 °F 81% 30.06 in 10.0 mi WSW 10.4 mph - N/A   Overcast
2:34 PM 69.8 °F 60.8 °F 73% 30.04 in 10.0 mi WSW 10.4 mph - N/A   Mostly Cloudy
2:55 PM 68.5 °F 60.3 °F 75% 30.04 in 10.0 mi SW 13.8 mph 19.6 mph N/A   Overcast
3:24 PM 68.0 °F 60.8 °F 78% 30.04 in 10.0 mi WSW 10.4 mph - N/A Rain Light Rain
3:35 PM 68.0 °F 60.8 °F 78% 30.04 in 10.0 mi SW 9.2 mph - N/A   Overcast
3:55 PM 67.8 °F 60.1 °F 76% 30.05 in 10.0 mi SW 10.4 mph - 0.00 in   Overcast
4:14 PM 68.0 °F 60.8 °F 78% 30.05 in 10.0 mi SW 6.9 mph - N/A Rain Light Rain
4:55 PM 65.1 °F 62.1 °F 90% 30.05 in 10.0 mi SW 8.1 mph - 0.01 in Rain Light Rain
5:55 PM 63.7 °F 63.0 °F 97% 30.06 in 4.0 mi WSW 6.9 mph - 0.03 in Rain Light Rain
6:55 PM 62.4 °F 62.2 °F 99% 30.06 in 4.0 mi SSW 6.9 mph - 0.03 in Rain Light Rain
7:55 PM 61.3 °F 60.1 °F 96% 30.08 in 10.0 mi SW 8.1 mph - 0.02 in Rain Light Rain
8:55 PM 59.2 °F 57.4 °F 94% 30.08 in 10.0 mi West 8.1 mph - 0.03 in Rain Light Rain
9:14 PM 59.0 °F 57.2 °F 94% 30.09 in 10.0 mi West 8.1 mph - N/A Rain Light Rain
9:47 PM 57.2 °F 55.4 °F 94% 30.06 in 10.0 mi WSW 9.2 mph - N/A Rain Light Rain
9:50 PM 57.2 °F 55.4 °F 94% 30.06 in 10.0 mi WSW 9.2 mph - N/A   Overcast
9:55 PM 57.9 °F 55.9 °F 93% 30.06 in 10.0 mi WSW 9.2 mph - 0.04 in   Overcast
10:50 PM 57.2 °F 55.4 °F 94% 30.05 in 10.0 mi SSW 8.1 mph - N/A Rain Light Rain
10:55 PM 57.2 °F 55.4 °F 94% 30.05 in 10.0 mi SSW 8.1 mph - 0.00 in Rain Light Rain
11:06 PM 57.2 °F 55.4 °F 94% 30.06 in 10.0 mi SSW 9.2 mph - N/A Rain Light Rain
11:55 PM 56.3 °F 55.2 °F 96% 30.04 in 10.0 mi SW 8.1 mph - 0.02 in Rain Light Rain